Flag for Spain Weather past 2 weeks in Madrid, Spain

Now
72 °F

Clear.


Feels Like: 75 °F
Forecast: 66 / 100 °F
Wind: 6 mph from Southeast

Location: Madrid / Barajas

Current Time: Aug 2, 2015 at 5:10:22 AM

Latest Report: Aug 2, 2015 at 4:00 AM


Visibility: 19 mi

Pressure: 29.94 "Hg (27.74 "Hg at 658m altitude)

Humidity: 69%

Dew point: 62 °F

Location of MadridLocation

Historic Weather in Madrid — Graph

°F

Madrid temperature yesterday

Maximum temperature yesterday: 90 °F (at 8:00 PM)
Minimum temperature yesterday: 63 °F (at 7:00 AM)
Average temperature yesterday: 76 °F

Past Weeks' High & Low Weather Summary

 TemperatureHumidityPressure
High100 °F (Jul 27, 5:00 PM)73% (Aug 1, 6:00 AM)30.01 "Hg (Aug 1, 6:00 AM)
Low63 °F (Aug 1, 7:00 AM)10% (Jul 29, 6:00 PM)29.59 "Hg (Jul 31, 6:00 PM)
Average83 °F36%29.85 "Hg
* Reported Jul 18 3:00 AM — Aug 2 3:00 AM, Madrid, Weather by CustomWeather, © 2015

Note: Actual official high and low records may vary slightly from our data, if they occured in-between our weather recording intervals... More about our weather records

Advertising

Madrid weather history for previous 24 hours

 ConditionsComfort  
Time TempWeatherWind HumidityBarometerVisibility
3:00 AM
Sun, Aug 2
74 °FClear.7 mph63%29.93 "Hg19 mi
1:00 AM75 °FClear.3 mph40%29.92 "Hg19 mi
12:00 AM78 °FClear.5 mph31%29.88 "Hg19 mi
10:00 PM
Sat, Aug 1
84 °FPassing clouds.7 mph27%29.83 "Hg19 mi
9:00 PM87 °FPassing clouds.2 mph23%29.80 "Hg19 mi
8:00 PM90 °FPassing clouds.2 mph21%29.78 "Hg19 mi
7:00 PM89 °FPassing clouds.6 mph21%29.79 "Hg19 mi
6:00 PM90 °FPassing clouds.5 mph22%29.79 "Hg19 mi
5:00 PM89 °FScattered clouds.5 mph24%29.81 "Hg19 mi
4:00 PM89 °FPassing clouds.3 mph25%29.82 "Hg19 mi
3:00 PM86 °FScattered clouds.5 mph30%29.83 "Hg19 mi
2:00 PM83 °FScattered clouds.5 mph34%29.86 "Hg19 mi
1:00 PM81 °FPassing clouds.7 mph39%29.87 "Hg19 mi
12:00 PM78 °FPassing clouds.7 mph45%29.89 "Hg19 mi
11:00 AM74 °FPassing clouds.7 mph53%29.90 "Hg19 mi
10:00 AM71 °FMild.6 mph57%29.91 "Hg17 mi
9:00 AM67 °FSunny.8 mph64%29.91 "Hg19 mi
8:00 AM63 °FSunny.8 mph72%29.91 "Hg19 mi
7:00 AM63 °FPassing clouds.7 mph73%29.89 "Hg19 mi
6:00 AM63 °FClear.7 mph73%29.88 "Hg19 mi
5:00 AM64 °FClear.3 mph71%29.88 "Hg19 mi
Weather by CustomWeather, © 2015

See weather overviewHow to use our weather pages